K3ZED-2 Weather Reports


time (UTC)temp
C
wind
direction
speed
KPH
gust
KPH
rain 1hr
cm
rain 24hr
cm
rain mn
cm
humidity
%
barometer
mb
20260506113104 17 183 19.3 41.8 0.00 0.00 0.00 82 1009.5
20260506111600 17 216 8.0 37.0 0.00 0.00 0.00 82 1009.5
20260506110106 17 207 19.3 38.6 0.00 0.00 0.00 82 1009.5
20260506104601 17 210 19.3 40.2 0.00 0.00 0.00 82 1009.3
20260506103057 17 195 17.7 35.4 0.00 0.00 0.00 83 1009.3
20260506101554 17 213 14.5 40.2 0.00 0.00 0.00 83 1009.3
20260506100053 17 208 20.9 46.7 0.00 0.00 0.00 82 1009.2
20260506094551 17 218 8.0 38.6 0.00 0.00 0.00 82 1009.2
20260506093048 17 229 17.7 35.4 0.00 0.00 0.00 82 1009.3
20260506091552 17 191 19.3 35.4 0.00 0.00 0.00 81 1009.4
20260506090042 17 207 16.1 41.8 0.00 0.00 0.00 81 1009.3
20260506084545 17 212 17.7 40.2 0.00 0.00 0.00 80 1009.3
20260506083036 18 211 19.3 40.2 0.00 0.00 0.00 79 1009.3
20260506081533 18 218 14.5 32.2 0.00 0.00 0.00 79 1009.4
20260506073026 18 235 14.5 37.0 0.00 0.00 0.00 78 1009.6
20260506071525 18 211 14.5 30.6 0.00 0.00 0.00 77 1009.7
20260506061513 18 216 3.2 27.4 0.00 0.00 0.00 75 1010.1
20260506044506 18 210 0.0 8.0 0.00 0.00 0.00 71 1010.6
20260506043003 18 208 0.0 9.7 0.00 0.00 0.00 70 1010.7
20260506041501 18 212 3.2 19.3 0.00 0.00 0.00 69 1010.7
20260506040100 18 180 3.2 17.7 0.00 0.00 0.00 69 1010.7
20260506034615 18 220 0.0 17.7 0.00 0.00 0.00 69 1010.7
20260506033058 18 217 0.0 14.5 0.00 0.00 0.00 68 1010.6
20260506031607 18 218 0.0 14.5 0.00 0.00 0.00 68 1010.5
20260506030057 18 223 1.6 16.1 0.00 0.00 0.00 69 1010.6
20260506024616 18 214 1.6 16.1 0.00 0.00 0.00 69 1010.6
20260506023057 18 181 0.0 6.4 0.00 0.00 0.00 67 1010.8
20260506021558 19 189 0.0 16.1 0.00 0.00 0.00 66 1010.8
20260506020058 19 206 1.6 14.5 0.00 0.00 0.00 65 1010.7
20260506014555 20 200 0.0 12.9 0.00 0.00 0.00 64 1010.6
20260506013107 20 201 0.0 22.5 0.00 0.00 0.00 63 1010.3
20260506011606 20 204 0.0 6.4 0.00 0.00 0.00 62 1010.1
20260506010056 21 210 1.6 9.7 0.00 0.00 0.00 60 1010.0
20260506004554 21 203 0.0 6.4 0.00 0.00 0.00 59 1009.9
20260506003052 21 210 0.0 19.3 0.00 0.00 0.00 57 1009.7
20260506001551 22 203 0.0 4.8 0.00 0.00 0.00 55 1009.6
20260506000052 22 209 0.0 22.5 0.00 0.00 0.00 54 1009.4
20260505234551 22 209 3.2 20.9 0.00 0.00 0.00 52 1009.2
20260505233050 23 212 11.3 29.0 0.00 0.00 0.00 50 1009.1
20260505231550 23 208 11.3 32.2 0.00 0.00 0.00 49 1009.3
20260505230101 24 208 6.4 38.6 0.00 0.00 0.00 48 1009.2
20260505224549 24 213 11.3 45.1 0.00 0.00 0.00 47 1009.2
20260505223056 25 155 6.4 35.4 0.00 0.00 0.00 47 1009.2
20260505221548 25 220 19.3 46.7 0.00 0.00 0.00 45 1009.3
20260505220047 26 210 20.9 45.1 0.00 0.00 0.00 45 1009.1
20260505214547 25 189 19.3 40.2 0.00 0.00 0.00 46 1009.2
20260505213055 26 199 19.3 48.3 0.00 0.00 0.00 45 1009.1
20260505211545 26 196 22.5 41.8 0.00 0.00 0.00 45 1009.2
20260505210045 26 199 17.7 43.5 0.00 0.00 0.00 47 1009.1
20260505204545 26 202 17.7 51.5 0.00 0.00 0.00 45 1009.1
20260505203050 26 235 27.4 46.7 0.00 0.00 0.00 46 1009.3
20260505201546 26 201 14.5 45.1 0.00 0.00 0.00 47 1009.3
20260505200041 26 212 22.5 48.3 0.00 0.00 0.00 46 1009.4
20260505194543 26 190 12.9 40.2 0.00 0.00 0.00 46 1009.4
20260505193038 26 238 9.7 32.2 0.00 0.00 0.00 46 1009.6
20260505191537 26 279 17.7 40.2 0.00 0.00 0.00 47 1009.8
20260505190034 26 218 4.8 40.2 0.00 0.00 0.00 48 1010.0
20260505184533 26 218 19.3 53.1 0.00 0.00 0.00 46 1010.1
20260505183032 26 185 14.5 41.8 0.00 0.00 0.00 45 1010.3
20260505181530 26 199 19.3 40.2 0.00 0.00 0.00 47 1010.4
20260505180028 26 193 3.2 20.9 0.00 0.00 0.00 48 1010.6
20260505174525 26 165 6.4 29.0 0.00 0.00 0.00 52 1010.8
20260505173037 26 143 8.0 38.6 0.00 0.00 0.00 49 1010.9
20260505171520 25 172 4.8 27.4 0.00 0.00 0.00 54 1011.0
20260505170023 25 201 4.8 25.7 0.00 0.00 0.00 55 1011.3
20260505164535 25 189 1.6 30.6 0.00 0.00 0.00 53 1011.4
20260505163014 24 191 11.3 33.8 0.00 0.00 0.00 53 1011.5
20260505161511 24 229 8.0 25.7 0.00 0.00 0.00 55 1011.5
20260505153011 23 185 0.0 12.9 0.00 0.00 0.00 59 1011.7
20260505151507 23 199 0.0 32.2 0.00 0.00 0.00 59 1011.8
20260505140104 21 224 6.4 22.5 0.00 0.00 0.00 58 1011.9
20260505124538 18 216 12.9 29.0 0.00 0.00 0.00 65 1012.4
20260505123033 17 212 8.0 19.3 0.00 0.00 0.00 68 1012.4
20260505121535 17 223 9.7 25.7 0.00 0.00 0.00 71 1012.2
20260505120025 16 206 9.7 22.5 0.00 0.00 0.00 72 1012.1
20260505114532 16 241 16.1 30.6 0.00 0.00 0.00 74 1012.1